Date String (YYYY-MM-DD hh:mm:ss) UTC,Instrument flags,absolute air pressure of the measurement (hPa),sample flow rate (lpm),inlet stack bypass flow (lpm),air temperature of the measurement (°C),ambient temperature measured by the external sensor (°C),aerosol sample conditioner tube jacket temperature (°C),OPC LED temperature (°C),internal box temperature (°C),relative humidity of the measurement (%),span deviation,mass concentration of particles derived from Lorenz-Mie calculation of OPC scattering (μg/m³),mass concentration of particles derived from Lorenz-Mie calculation of OPC scattering (μg/m³),mass concentration of particles derived from Lorenz-Mie calculation of OPC scattering (μg/m³)
DateTimeUTC,F1_M11,P_M11,Q1_M11,Q2_M11,T1_M11,T2_M11,T3_M11,T4_M11,T5_M11,U1_M11,ZSPAN_M11,X0_M11,X2_M11,X1_M11
2024-02-08 21:00:00,SystemResetWarning,0817.5,5.01,000.00,020.9,020.5,000.0,029.0,022.6,10.8,0000.0,0001.75,0000.36,0000.23
2024-02-08 21:01:00,SystemResetWarning,0817.5,5.01,000.00,020.9,020.5,000.0,029.0,022.6,10.7,0000.0,0002.12,0000.32,0000.22
2024-02-08 21:02:00,SystemResetWarning,0817.5,5.00,000.00,020.9,020.5,000.0,029.0,022.6,10.8,0000.0,0002.78,0000.29,0000.22
2024-02-08 21:03:00,SystemResetWarning,0817.6,4.99,000.00,020.9,020.5,000.0,029.0,022.7,10.9,0000.0,0002.77,0000.29,0000.22
2024-02-08 21:04:00,SystemResetWarning,0817.6,4.99,000.00,020.9,020.5,000.0,029.0,022.7,10.9,0000.0,0002.81,0000.31,0000.22
2024-02-08 21:05:00,SystemResetWarning,0817.7,5.00,000.00,021.0,020.6,000.0,029.1,022.7,11.6,0000.0,0002.84,0000.32,0000.23
2024-02-08 21:06:00,SystemResetWarning,0817.6,5.01,000.00,021.0,020.6,000.0,029.1,022.7,11.5,0000.0,0002.83,0000.32,0000.22
2024-02-08 21:07:00,SystemResetWarning,0817.6,5.01,000.00,021.0,020.6,000.0,029.1,022.7,10.8,0000.0,0002.80,0000.30,0000.23
2024-02-08 21:08:00,SystemResetWarning,0817.7,5.00,000.00,021.0,020.6,000.0,029.1,022.7,10.8,0000.0,0002.80,0000.31,0000.23
2024-02-08 21:09:00,SystemResetWarning,0817.7,4.99,000.00,021.0,020.6,000.0,029.1,022.7,10.8,0000.0,0002.91,0000.32,0000.23
2024-02-08 21:10:00,SystemResetWarning,0817.7,4.99,000.00,021.0,020.6,000.0,029.1,022.8,10.1,0000.0,0003.35,0000.33,0000.24
2024-02-08 21:11:00,SystemResetWarning,0817.7,5.00,000.00,021.1,020.7,000.0,029.2,022.8,10.9,0000.0,0003.35,0000.34,0000.24
2024-02-08 21:12:00,SystemResetWarning,0817.6,5.00,000.00,021.1,020.7,000.0,029.2,022.8,10.4,0000.0,0003.11,0000.35,0000.25
2024-02-08 21:13:00,SystemResetWarning,0817.5,5.01,000.00,021.1,020.7,000.0,029.2,022.8,10.4,0000.0,0002.11,0000.33,0000.25
2024-02-08 21:14:00,SystemResetWarning,0817.6,5.01,000.00,021.1,020.7,000.0,029.2,022.8,09.9,0000.0,0002.19,0000.36,0000.25
2024-02-08 21:15:00,SystemResetWarning,0817.6,5.00,000.00,021.1,020.7,000.0,029.2,022.8,10.0,0000.0,0002.51,0000.40,0000.26
2024-02-08 21:16:00,SystemResetWarning,0817.6,4.99,000.00,021.1,020.7,000.0,029.2,022.8,10.7,0000.0,0002.47,0000.38,0000.25
2024-02-08 21:17:00,SystemResetWarning,0817.6,4.99,000.00,021.2,020.7,000.0,029.3,022.8,10.8,0000.0,0002.47,0000.38,0000.25
2024-02-08 21:18:00,SystemResetWarning,0817.6,5.00,000.00,021.2,020.7,000.0,029.3,022.8,10.5,0000.0,0002.47,0000.38,0000.25
2024-02-08 21:19:00,SystemResetWarning,0817.6,5.02,000.00,021.2,020.7,000.0,029.3,022.9,10.7,0000.0,0002.49,0000.38,0000.25
2024-02-08 21:20:00,SystemResetWarning,0817.6,5.00,000.00,021.2,020.7,000.0,029.3,022.8,10.2,0000.0,0001.87,0000.36,0000.26
2024-02-08 21:21:00,SystemResetWarning,0817.6,4.99,000.00,021.2,020.8,000.0,029.3,022.9,10.2,0000.0,0001.63,0000.34,0000.25
2024-02-08 21:22:00,SystemResetWarning,0817.5,5.00,000.00,021.2,020.8,000.0,029.3,022.9,10.6,0000.0,0002.16,0000.34,0000.25
2024-02-08 21:23:00,SystemResetWarning,0817.5,4.99,000.00,021.2,020.8,000.0,029.3,022.8,10.7,0000.0,0002.15,0000.33,0000.24
2024-02-08 21:24:00,SystemResetWarning,0817.4,5.00,000.00,021.2,020.8,000.0,029.3,022.9,10.8,0000.0,0002.14,0000.32,0000.24
2024-02-08 21:25:00,SystemResetWarning,0817.4,5.00,000.00,021.2,020.8,000.0,029.3,022.8,11.0,0000.0,0002.08,0000.30,0000.23
2024-02-08 21:26:00,SystemResetWarning,0817.5,5.00,000.00,021.2,020.8,000.0,029.4,022.9,11.1,0000.0,0001.77,0000.25,0000.23
2024-02-08 21:27:00,SystemResetWarning,0817.5,5.01,000.00,021.3,020.7,000.0,029.4,022.9,11.1,0000.0,0001.70,0000.24,0000.22
2024-02-08 21:28:00,SystemResetWarning,0817.4,5.01,000.00,021.3,020.7,000.0,029.4,022.9,11.1,0000.0,0001.71,0000.24,0000.22
2024-02-08 21:29:00,SystemResetWarning,0817.5,5.00,000.00,021.3,020.7,000.0,029.4,023.0,11.1,0000.0,0001.74,0000.26,0000.22
2024-02-08 21:30:00,SystemResetWarning,0817.5,4.99,000.00,021.3,020.7,000.0,029.4,022.9,11.3,0000.0,0001.73,0000.25,0000.22
2024-02-08 21:31:00,SystemResetWarning,0817.5,4.99,000.00,021.3,020.7,000.0,029.4,023.0,11.3,0000.0,0001.80,0000.26,0000.22
2024-02-08 21:32:00,SystemResetWarning,0817.4,5.00,000.00,021.3,020.7,000.0,029.4,022.9,11.5,0000.0,0000.98,0000.26,0000.22
2024-02-08 21:33:00,SystemResetWarning,0817.4,5.00,000.00,021.3,020.7,000.0,029.4,022.9,11.8,0000.0,0000.51,0000.27,0000.22
2024-02-08 21:34:00,SystemResetWarning,0817.4,5.00,000.00,021.3,020.7,000.0,029.4,022.9,11.4,0000.0,0000.52,0000.27,0000.23
2024-02-08 21:35:00,SystemResetWarning,0817.4,5.01,000.00,021.3,020.7,000.0,029.4,023.0,11.2,0000.0,0000.56,0000.29,0000.24
2024-02-08 21:36:00,SystemResetWarning,0817.5,4.99,000.00,021.3,020.6,000.0,029.4,023.0,11.4,0000.0,0000.58,0000.29,0000.24
2024-02-08 21:37:00,SystemResetWarning,0817.5,5.00,000.00,021.3,020.6,000.0,029.5,022.9,12.4,0000.0,0000.59,0000.30,0000.25
2024-02-08 21:38:00,SystemResetWarning,0817.4,4.99,000.00,021.3,020.6,000.0,029.5,022.9,12.0,0000.0,0000.59,0000.30,0000.25
2024-02-08 21:39:00,SystemResetWarning,0817.2,5.00,000.00,021.3,020.6,000.0,029.5,023.0,12.0,0000.0,0000.64,0000.32,0000.26
2024-02-08 21:40:00,SystemResetWarning,0817.3,5.01,000.00,021.3,020.7,000.0,029.5,023.0,11.7,0000.0,0000.67,0000.34,0000.27
2024-02-08 21:41:00,SystemResetWarning,0817.3,5.01,000.00,021.3,020.7,000.0,029.5,023.0,11.9,0000.0,0000.69,0000.36,0000.28
2024-02-08 21:42:00,SystemResetWarning,0817.3,4.99,000.00,021.3,020.6,000.0,029.5,022.9,12.5,0000.0,0000.70,0000.37,0000.28
2024-02-08 21:43:00,SystemResetWarning,0817.4,4.99,000.00,021.3,020.6,000.0,029.5,022.9,12.3,0000.0,0000.60,0000.36,0000.29
2024-02-08 21:44:00,SystemResetWarning,0817.3,5.00,000.00,021.3,020.6,000.0,029.5,022.9,12.2,0000.0,0000.55,0000.37,0000.29
2024-02-08 21:45:00,SystemResetWarning,0817.3,5.00,000.00,021.3,020.6,000.0,029.5,022.9,11.9,0000.0,0000.60,0000.40,0000.31
2024-02-08 21:46:00,SystemResetWarning,0817.3,5.01,000.00,021.3,020.6,000.0,029.5,022.9,11.7,0000.0,0000.65,0000.42,0000.31
2024-02-08 21:47:00,SystemResetWarning,0817.4,5.00,000.00,021.3,020.6,000.0,029.5,022.9,11.1,0000.0,0000.66,0000.43,0000.32
2024-02-08 21:48:00,SystemResetWarning,0817.4,5.01,000.00,021.3,020.6,000.0,029.5,022.9,11.4,0000.0,0000.70,0000.45,0000.33
2024-02-08 21:49:00,SystemResetWarning,0817.5,5.00,000.00,021.3,020.5,000.0,029.5,022.9,11.3,0000.0,0000.72,0000.47,0000.34
2024-02-08 21:50:00,SystemResetWarning,0817.5,4.98,000.00,021.3,020.5,000.0,029.5,022.9,11.9,0000.0,0000.73,0000.47,0000.34
2024-02-08 21:51:00,SystemResetWarning,0817.6,5.00,000.00,021.3,020.5,000.0,029.5,022.9,11.8,0000.0,0001.22,0000.48,0000.34
2024-02-08 21:52:00,SystemResetWarning,0817.5,5.01,000.00,021.3,020.5,000.0,029.5,022.9,11.4,0000.0,0002.31,0000.46,0000.34
2024-02-08 21:53:00,SystemResetWarning,0817.6,5.01,000.00,021.3,020.5,000.0,029.5,022.9,10.8,0000.0,0002.50,0000.46,0000.35
2024-02-08 21:54:00,SystemResetWarning,0817.6,5.00,000.00,021.3,020.5,000.0,029.5,023.0,11.3,0000.0,0002.56,0000.47,0000.35
2024-02-08 21:55:00,SystemResetWarning,0817.6,5.00,000.00,021.3,020.5,000.0,029.5,023.0,11.8,0000.0,0002.61,0000.49,0000.35
2024-02-08 21:56:00,SystemResetWarning,0817.6,5.00,000.00,021.3,020.5,000.0,029.5,023.0,11.4,0000.0,0002.57,0000.47,0000.34
2024-02-08 21:57:00,SystemResetWarning,0817.7,5.00,000.00,021.3,020.5,000.0,029.5,022.9,11.3,0000.0,0002.53,0000.45,0000.33
2024-02-08 21:58:00,SystemResetWarning,0817.7,5.00,000.00,021.2,020.5,000.0,029.5,022.9,11.3,0000.0,0002.47,0000.44,0000.33
2024-02-08 21:59:00,SystemResetWarning,0817.7,5.00,000.00,021.2,020.5,000.0,029.5,023.0,11.5,0000.0,0002.46,0000.43,0000.33
